DW1449 Weather Reports


time (UTC)temp
C
wind
direction
speed
KPH
gust
KPH
rain 1hr
cm
rain 24hr
cm
rain mn
cm
humidity
%
barometer
mb
20260507195534 7 0.0 0.0 0.00 0.00 0.00 75 1019.9
20260507195033 7 0.0 0.0 0.00 0.00 0.00 75 1019.8
20260507194614 8 0.0 0.0 0.00 0.00 0.00 74 1019.9
20260507194034 8 0.0 0.0 0.00 0.00 0.00 74 1019.7
20260507193534 8 0.0 0.0 0.00 0.00 0.00 73 1019.8
20260507193044 8 0.0 0.0 0.00 0.00 0.00 72 1019.7
20260507192533 8 0.0 0.0 0.00 0.00 0.00 72 1019.6
20260507192033 8 0.0 0.0 0.00 0.00 0.00 71 1019.7
20260507191543 8 0.0 0.0 0.00 0.00 0.00 70 1019.7
20260507191034 8 0.0 0.0 0.00 0.00 0.00 69 1019.6
20260507190535 8 0.0 0.0 0.00 0.00 0.00 68 1019.5
20260507190052 9 0.0 0.0 0.00 0.00 0.00 67 1019.4
20260507185534 9 0.0 0.0 0.00 0.00 0.00 66 1019.4
20260507185034 9 0.0 0.0 0.00 0.00 0.00 65 1019.4
20260507184547 9 0.0 0.0 0.00 0.00 0.00 64 1019.4
20260507184035 9 0.0 0.0 0.00 0.00 0.00 63 1019.2
20260507183532 10 0.0 0.0 0.00 0.00 0.00 62 1019.2
20260507183045 10 0.0 0.0 0.00 0.00 0.00 62 1019.3
20260507182532 10 0.0 0.0 0.00 0.00 0.00 61 1019.2
20260507182032 10 0.0 0.0 0.00 0.00 0.00 61 1019.1
20260507181541 10 0.0 0.0 0.00 0.00 0.00 60 1019.1
20260507181035 10 0.0 0.0 0.00 0.00 0.00 61 1019.1
20260507180535 10 0.0 0.0 0.00 0.00 0.00 62 1019.1
20260507180042 10 0.0 0.0 0.00 0.00 0.00 62 1018.9
20260507175535 10 0.0 0.0 0.00 0.00 0.00 63 1018.9
20260507175035 11 0.0 0.0 0.00 0.00 0.00 62 1019.0
20260507174552 11 0.0 0.0 0.00 0.00 0.00 61 1018.7
20260507174034 11 0.0 0.0 0.00 0.00 0.00 60 1018.7
20260507173536 11 0.0 0.0 0.00 0.00 0.00 60 1018.6
20260507173118 11 0.0 0.0 0.00 0.00 0.00 60 1018.5
20260507172535 11 0.0 0.0 0.00 0.00 0.00 59 1018.5
20260507172035 11 0.0 0.0 0.00 0.00 0.00 60 1018.3
20260507171554 11 0.0 0.0 0.00 0.00 0.00 60 1018.3
20260507171035 11 0.0 0.0 0.00 0.00 0.00 59 1018.3
20260507170536 11 0.0 0.0 0.00 0.00 0.00 58 1018.1
20260507170058 12 0.0 0.0 0.00 0.00 0.00 56 1018.1
20260507165536 12 0.0 0.0 0.00 0.00 0.00 54 1018.0
20260507165036 12 0.0 0.0 0.00 0.00 0.00 51 1017.9
20260507164550 12 0.0 0.0 0.00 0.00 0.00 50 1017.8
20260507164034 12 0.0 0.0 0.00 0.00 0.00 46 1017.9
20260507163534 12 0.0 0.0 0.00 0.00 0.00 44 1018.0
20260507163047 12 0.0 0.0 0.00 0.00 0.00 39 1018.0
20260507162535 12 0.0 0.0 0.00 0.00 0.00 39 1017.8
20260507162035 12 0.0 0.0 0.00 0.00 0.00 40 1018.0
20260507161558 12 0.0 0.0 0.00 0.00 0.00 37 1017.9
20260507161036 12 0.0 0.0 0.00 0.00 0.00 34 1017.8
20260507160533 12 0.0 0.0 0.00 0.00 0.00 36 1017.9
20260507160042 12 0.0 0.0 0.00 0.00 0.00 34 1017.8
20260507155532 12 0.0 0.0 0.00 0.00 0.00 33 1017.9
20260507155035 12 0.0 0.0 0.00 0.00 0.00 33 1018.0
20260507154549 12 0.0 0.0 0.00 0.00 0.00 33 1017.9
20260507154033 12 0.0 0.0 0.00 0.00 0.00 35 1017.8
20260507153535 12 0.0 0.0 0.00 0.00 0.00 34 1017.8
20260507153055 12 0.0 0.0 0.00 0.00 0.00 34 1017.9
20260507152539 12 0.0 0.0 0.00 0.00 0.00 35 1017.9
20260507152035 12 0.0 0.0 0.00 0.00 0.00 35 1017.8
20260507151543 12 0.0 0.0 0.00 0.00 0.00 39 1017.7
20260507151038 13 0.0 0.0 0.00 0.00 0.00 42 1017.7
20260507150535 12 0.0 0.0 0.00 0.00 0.00 41 1017.8
20260507150044 13 0.0 0.0 0.00 0.00 0.00 42 1017.6
20260507145536 13 0.0 0.0 0.00 0.00 0.00 42 1017.9
20260507145118 13 0.0 0.0 0.00 0.00 0.00 45 1017.7
20260507144551 13 0.0 0.0 0.00 0.00 0.00 44 1017.7
20260507144037 13 0.0 0.0 0.00 0.00 0.00 45 1017.6
20260507143535 13 0.0 0.0 0.00 0.00 0.00 43 1017.7
20260507143049 13 0.0 0.0 0.00 0.00 0.00 44 1017.6
20260507142535 13 0.0 0.0 0.00 0.00 0.00 42 1017.7
20260507142034 13 0.0 0.0 0.00 0.00 0.00 42 1017.8
20260507141602 13 0.0 0.0 0.00 0.00 0.00 44 1017.7
20260507141039 13 0.0 0.0 0.00 0.00 0.00 43 1017.8
20260507140535 13 0.0 0.0 0.00 0.00 0.00 47 1017.7
20260507140053 13 0.0 0.0 0.00 0.00 0.00 45 1017.7
20260507135535 13 0.0 0.0 0.00 0.00 0.00 45 1017.8
20260507135035 13 0.0 0.0 0.00 0.00 0.00 45 1017.7
20260507134542 13 0.0 0.0 0.00 0.00 0.00 45 1017.8
20260507134033 13 0.0 0.0 0.00 0.00 0.00 47 1017.8
20260507133535 13 0.0 0.0 0.00 0.00 0.00 43 1017.8
20260507133049 13 0.0 0.0 0.00 0.00 0.00 47 1017.7
20260507132535 13 0.0 0.0 0.00 0.00 0.00 48 1017.9
20260507132035 13 0.0 0.0 0.00 0.00 0.00 45 1017.7
20260507131548 13 0.0 0.0 0.00 0.00 0.00 42 1017.6
20260507131036 13 0.0 0.0 0.00 0.00 0.00 50 1017.7
20260507130535 13 0.0 0.0 0.00 0.00 0.00 51 1017.6
20260507130048 13 0.0 0.0 0.00 0.00 0.00 48 1017.4
20260507125536 13 0.0 0.0 0.00 0.00 0.00 50 1017.6
20260507125037 13 0.0 0.0 0.00 0.00 0.00 49 1017.6
20260507124547 13 0.0 0.0 0.00 0.00 0.00 47 1017.5
20260507124035 13 0.0 0.0 0.00 0.00 0.00 53 1017.5
20260507123535 13 0.0 0.0 0.00 0.00 0.00 50 1017.5
20260507123050 13 0.0 0.0 0.00 0.00 0.00 48 1017.5
20260507122535 13 0.0 0.0 0.00 0.00 0.00 47 1017.4
20260507122035 13 0.0 0.0 0.00 0.00 0.00 51 1017.4
20260507121549 13 0.0 0.0 0.00 0.00 0.00 49 1017.5
20260507121035 13 0.0 0.0 0.00 0.00 0.00 52 1017.5
20260507120535 13 0.0 0.0 0.00 0.00 0.00 49 1017.4
20260507120050 13 0.0 0.0 0.00 0.00 0.00 50 1017.4
20260507115535 12 0.0 0.0 0.00 0.00 0.00 50 1017.4
20260507115037 12 0.0 0.0 0.00 0.00 0.00 49 1017.5
20260507114542 13 0.0 0.0 0.00 0.00 0.00 49 1017.3
20260507114034 13 0.0 0.0 0.00 0.00 0.00 47 1017.4
20260507113537 12 0.0 0.0 0.00 0.00 0.00 48 1017.4
20260507113051 13 0.0 0.0 0.00 0.00 0.00 49 1017.3
20260507112534 12 0.0 0.0 0.00 0.00 0.00 50 1017.3
20260507112032 12 0.0 0.0 0.00 0.00 0.00 49 1017.2
20260507111540 13 0.0 0.0 0.00 0.00 0.00 54 1017.3
20260507111032 12 0.0 0.0 0.00 0.00 0.00 53 1017.3
20260507110534 12 0.0 0.0 0.00 0.00 0.00 56 1017.3
20260507110044 12 0.0 0.0 0.00 0.00 0.00 52 1017.3
20260507105534 12 0.0 0.0 0.00 0.00 0.00 56 1017.4
20260507105035 12 0.0 0.0 0.00 0.00 0.00 59 1017.2
20260507104542 12 0.0 0.0 0.00 0.00 0.00 58 1017.3
20260507104035 12 0.0 0.0 0.00 0.00 0.00 56 1017.2
20260507103535 12 0.0 0.0 0.00 0.00 0.00 57 1017.3
20260507103043 12 0.0 0.0 0.00 0.00 0.00 57 1017.3
20260507102536 12 0.0 0.0 0.00 0.00 0.00 57 1017.3
20260507102036 12 0.0 0.0 0.00 0.00 0.00 57 1017.1
20260507101537 12 0.0 0.0 0.00 0.00 0.00 57 1017.2
20260507101037 12 0.0 0.0 0.00 0.00 0.00 64 1017.1
20260507100540 12 0.0 0.0 0.00 0.00 0.00 61 1017.1
20260507100041 12 0.0 0.0 0.00 0.00 0.00 63 1017.1
20260507095536 12 0.0 0.0 0.00 0.00 0.00 61 1017.1
20260507095034 12 0.0 0.0 0.00 0.00 0.00 65 1017.1
20260507094550 12 0.0 0.0 0.00 0.00 0.00 63 1017.1
20260507094035 12 0.0 0.0 0.00 0.00 0.00 67 1017.1
20260507093535 11 0.0 0.0 0.00 0.00 0.00 63 1017.0
20260507093042 12 0.0 0.0 0.00 0.00 0.00 66 1016.8
20260507092535 11 0.0 0.0 0.00 0.00 0.00 66 1017.0
20260507092035 11 0.0 0.0 0.00 0.00 0.00 67 1016.9
20260507091545 11 0.0 0.0 0.00 0.00 0.00 68 1016.8
20260507091035 11 0.0 0.0 0.00 0.00 0.00 66 1016.9
20260507090534 12 0.0 0.0 0.00 0.00 0.00 70 1016.9
20260507090047 11 0.0 0.0 0.00 0.00 0.00 70 1016.9
20260507085536 11 0.0 0.0 0.00 0.00 0.00 70 1016.9
20260507085035 11 0.0 0.0 0.00 0.00 0.00 70 1016.9
20260507084548 11 0.0 0.0 0.00 0.00 0.00 73 1016.9
20260507084035 11 0.0 0.0 0.00 0.00 0.00 71 1016.8
20260507083535 11 0.0 0.0 0.00 0.00 0.00 70 1016.8
20260507083048 11 0.0 0.0 0.00 0.00 0.00 73 1016.8
20260507082536 11 0.0 0.0 0.00 0.00 0.00 73 1016.7
20260507082035 10 0.0 0.0 0.00 0.00 0.00 73 1016.7
20260507081550 10 0.0 0.0 0.00 0.00 0.00 74 1016.7
20260507081035 10 0.0 0.0 0.00 0.00 0.00 72 1016.6
20260507080535 10 0.0 0.0 0.00 0.00 0.00 74 1016.5
20260507080053 10 0.0 0.0 0.00 0.00 0.00 75 1016.7
20260507075535 10 0.0 0.0 0.00 0.00 0.00 75 1016.7
20260507075035 10 0.0 0.0 0.00 0.00 0.00 77 1016.5
20260507074550 10 0.0 0.0 0.00 0.00 0.00 77 1016.6
20260507074033 10 0.0 0.0 0.00 0.00 0.00 76 1016.6
20260507073535 10 0.0 0.0 0.00 0.00 0.00 77 1016.5
20260507073057 10 0.0 0.0 0.00 0.00 0.00 77 1016.6
20260507072535 9 0.0 0.0 0.00 0.00 0.00 77 1016.5
20260507072035 9 0.0 0.0 0.00 0.00 0.00 77 1016.5
20260507071542 9 0.0 0.0 0.00 0.00 0.00 76 1016.6
20260507071035 9 0.0 0.0 0.00 0.00 0.00 74 1016.5
20260507070535 8 0.0 0.0 0.00 0.00 0.00 74 1016.5
20260507070051 8 0.0 0.0 0.00 0.00 0.00 74 1016.4
20260507065536 8 0.0 0.0 0.00 0.00 0.00 74 1016.4
20260507065035 8 0.0 0.0 0.00 0.00 0.00 75 1016.4
20260507064548 8 0.0 0.0 0.00 0.00 0.00 75 1016.3
20260507064036 8 0.0 0.0 0.00 0.00 0.00 75 1016.3
20260507063536 8 0.0 0.0 0.00 0.00 0.00 80 1016.4
20260507063056 8 0.0 0.0 0.00 0.00 0.00 83 1016.4
20260507062535 7 0.0 0.0 0.00 0.00 0.00 83 1016.5
20260507062035 7 0.0 0.0 0.00 0.00 0.00 85 1016.3
20260507061546 7 0.0 0.0 0.00 0.00 0.00 86 1016.3
20260507061036 7 0.0 0.0 0.00 0.00 0.00 88 1016.4
20260507060535 7 0.0 0.0 0.00 0.00 0.00 90 1016.3
20260507060046 6 0.0 0.0 0.00 0.00 0.00 91 1016.1
20260507055532 6 0.0 0.0 0.00 0.00 0.00 92 1016.3
20260507055034 6 0.0 0.0 0.00 0.00 0.00 92 1016.2
20260507054544 6 0.0 0.0 0.00 0.00 0.00 92 1016.2
20260507054035 6 0.0 0.0 0.00 0.00 0.00 93 1016.1
20260507053532 5 0.0 0.0 0.00 0.00 0.00 93 1016.2
20260507053050 5 0.0 0.0 0.00 0.00 0.00 93 1016.1
20260507052534 5 0.0 0.0 0.00 0.00 0.00 93 1016.0
20260507052035 5 0.0 0.0 0.00 0.00 0.00 93 1016.0
20260507051542 5 0.0 0.0 0.00 0.00 0.00 93 1016.1
20260507051039 5 0.0 0.0 0.00 0.00 0.00 93 1016.0
20260507050536 5 0.0 0.0 0.00 0.00 0.00 93 1015.9
20260507050053 4 0.0 0.0 0.00 0.00 0.00 93 1015.9
20260507045535 4 0.0 0.0 0.00 0.00 0.00 93 1015.7
20260507045035 3 0.0 0.0 0.00 0.00 0.00 93 1015.9
20260507044546 3 0.0 0.0 0.00 0.00 0.00 93 1015.8
20260507044038 3 0.0 0.0 0.00 0.00 0.00 93 1015.8
20260507043535 3 0.0 0.0 0.00 0.00 0.00 92 1015.9
20260507043047 2 0.0 0.0 0.00 0.00 0.00 92 1015.7
20260507042535 2 0.0 0.0 0.00 0.00 0.00 93 1015.8
20260507042036 2 0.0 0.0 0.00 0.00 0.00 92 1015.7
20260507041547 2 0.0 0.0 0.00 0.00 0.00 92 1015.7
20260507041032 2 0.0 0.0 0.00 0.00 0.00 92 1015.8
20260507040534 2 0.0 0.0 0.00 0.00 0.00 92 1015.6
20260507040103 2 0.0 0.0 0.00 0.00 0.00 92 1015.5
20260507035534 2 0.0 0.0 0.00 0.00 0.00 92 1015.5
20260507035034 2 0.0 0.0 0.00 0.00 0.00 92 1015.6
20260507034602 2 0.0 0.0 0.00 0.00 0.00 92 1015.5
20260507034034 2 0.0 0.0 0.00 0.00 0.00 92 1015.5
20260507033533 2 0.0 0.0 0.00 0.00 0.00 91 1015.5
20260507033102 2 0.0 0.0 0.00 0.00 0.00 92 1015.5
20260507032537 2 0.0 0.0 0.00 0.00 0.00 91 1015.4
20260507032035 2 0.0 0.0 0.00 0.00 0.00 92 1015.4
20260507031545 2 0.0 0.0 0.00 0.00 0.00 91 1015.3
20260507031035 1 0.0 0.0 0.00 0.00 0.00 91 1015.4
20260507030538 1 0.0 0.0 0.00 0.00 0.00 91 1015.3
20260507030043 1 0.0 0.0 0.00 0.00 0.00 91 1015.3
20260507025535 1 0.0 0.0 0.00 0.00 0.00 91 1015.3
20260507025035 1 0.0 0.0 0.00 0.00 0.00 91 1015.3
20260507024552 1 0.0 0.0 0.00 0.00 0.00 91 1015.2
20260507024034 1 0.0 0.0 0.00 0.00 0.00 91 1015.1
20260507023538 1 0.0 0.0 0.00 0.00 0.00 91 1015.1
20260507023040 1 0.0 0.0 0.00 0.00 0.00 90 1015.1
20260507022532 1 0.0 0.0 0.00 0.00 0.00 90 1015.1
20260507022035 1 0.0 0.0 0.00 0.00 0.00 90 1015.0
20260507021550 1 0.0 0.0 0.00 0.00 0.00 90 1015.0
20260507021039 1 0.0 0.0 0.00 0.00 0.00 90 1015.0
20260507020534 1 0.0 0.0 0.00 0.00 0.00 90 1015.1
20260507020042 1 0.0 0.0 0.00 0.00 0.00 90 1015.1
20260507015534 1 0.0 0.0 0.00 0.00 0.00 89 1015.1
20260507015034 1 0.0 0.0 0.00 0.00 0.00 89 1015.0
20260507014545 2 0.0 0.0 0.00 0.00 0.00 89 1015.1
20260507014033 2 0.0 0.0 0.00 0.00 0.00 89 1014.8
20260507013532 2 0.0 0.0 0.00 0.00 0.00 89 1014.9
20260507013103 2 0.0 0.0 0.00 0.00 0.00 88 1015.0
20260507012535 2 0.0 0.0 0.00 0.00 0.00 88 1014.9
20260507012035 2 0.0 0.0 0.00 0.00 0.00 88 1014.9
20260507011552 2 0.0 0.0 0.00 0.00 0.00 88 1014.8
20260507011033 2 0.0 0.0 0.00 0.00 0.00 87 1014.9
20260507010535 2 0.0 0.0 0.00 0.00 0.00 87 1014.9
20260507010053 2 0.0 0.0 0.00 0.00 0.00 87 1014.8
20260507005534 2 0.0 0.0 0.00 0.00 0.00 87 1014.8
20260507005034 2 0.0 0.0 0.00 0.00 0.00 87 1014.8
20260507004540 2 0.0 0.0 0.00 0.00 0.00 87 1015.0
20260507004035 2 0.0 0.0 0.00 0.00 0.00 86 1015.0
20260507003535 2 0.0 0.0 0.00 0.00 0.00 86 1014.9
20260507003042 2 0.0 0.0 0.00 0.00 0.00 86 1014.9
20260507002535 2 0.0 0.0 0.00 0.00 0.00 86 1014.9
20260507002035 2 0.0 0.0 0.00 0.00 0.00 86 1014.7
20260507001604 2 0.0 0.0 0.00 0.00 0.00 86 1014.7
20260507001038 2 0.0 0.0 0.00 0.00 0.00 86 1014.9
20260507000535 2 0.0 0.0 0.00 0.00 0.00 85 1014.8
20260507000042 2 0.0 0.0 0.00 0.00 0.00 85 1014.7
20260506235535 2 0.0 0.0 0.00 0.00 0.00 85 1014.9
20260506235038 2 0.0 0.0 0.00 0.00 0.00 84 1014.8
20260506234552 2 0.0 0.0 0.00 0.00 0.00 83 1014.8
20260506234035 2 0.0 0.0 0.00 0.00 0.00 83 1014.9
20260506233533 2 0.0 0.0 0.00 0.00 0.00 82 1014.9
20260506233047 2 0.0 0.0 0.00 0.00 0.00 81 1014.7
20260506232535 2 0.0 0.0 0.00 0.00 0.00 81 1014.9
20260506232034 2 0.0 0.0 0.00 0.00 0.00 81 1014.7
20260506231542 2 0.0 0.0 0.00 0.00 0.00 81 1014.8
20260506231034 2 0.0 0.0 0.00 0.00 0.00 81 1014.8
20260506230535 2 0.0 0.0 0.00 0.00 0.00 80 1014.9
20260506230045 2 0.0 0.0 0.00 0.00 0.00 79 1014.8
20260506225535 2 0.0 0.0 0.00 0.00 0.00 79 1014.8
20260506225040 2 0.0 0.0 0.00 0.00 0.00 78 1014.7
20260506224554 2 0.0 0.0 0.00 0.00 0.00 78 1014.9
20260506224035 3 0.0 0.0 0.00 0.00 0.00 77 1015.0
20260506223536 3 0.0 0.0 0.00 0.00 0.00 76 1014.8
20260506223054 3 0.0 0.0 0.00 0.00 0.00 74 1014.7
20260506222539 3 0.0 0.0 0.00 0.00 0.00 74 1014.6
20260506222036 3 0.0 0.0 0.00 0.00 0.00 74 1014.7
20260506221542 3 0.0 0.0 0.00 0.00 0.00 75 1014.6
20260506221035 3 0.0 0.0 0.00 0.00 0.00 75 1014.5
20260506220535 3 0.0 0.0 0.00 0.00 0.00 75 1014.5
20260506215535 3 0.0 0.0 0.00 0.00 0.00 75 1014.4
20260506215035 3 0.0 0.0 0.00 0.00 0.00 74 1014.4
20260506214545 3 0.0 0.0 0.00 0.00 0.00 74 1014.5
20260506214036 3 0.0 0.0 0.00 0.00 0.00 73 1014.3
20260506213536 4 0.0 0.0 0.00 0.00 0.00 72 1014.3
20260506213053 5 0.0 0.0 0.00 0.00 0.00 69 1014.2
20260506212536 5 0.0 0.0 0.00 0.00 0.00 68 1014.3
20260506212035 5 0.0 0.0 0.00 0.00 0.00 66 1014.2
20260506211556 5 0.0 0.0 0.00 0.00 0.00 68 1014.1
20260506211037 5 0.0 0.0 0.00 0.00 0.00 68 1014.0
20260506210535 5 0.0 0.0 0.00 0.00 0.00 67 1014.2
20260506210050 5 0.0 0.0 0.00 0.00 0.00 67 1014.0
20260506205538 5 0.0 0.0 0.00 0.00 0.00 66 1014.1
20260506205037 5 0.0 0.0 0.00 0.00 0.00 67 1014.1
20260506204546 5 0.0 0.0 0.00 0.00 0.00 67 1014.0
20260506204036 5 0.0 0.0 0.00 0.00 0.00 67 1014.1
20260506203535 5 0.0 0.0 0.00 0.00 0.00 67 1014.1
20260506203049 5 0.0 0.0 0.00 0.00 0.00 67 1014.2
20260506202537 5 0.0 0.0 0.00 0.00 0.00 68 1014.2
20260506202036 5 0.0 0.0 0.00 0.00 0.00 68 1014.1
20260506201549 5 0.0 0.0 0.00 0.00 0.00 68 1014.2
20260506201035 5 0.0 0.0 0.00 0.00 0.00 68 1014.1
20260506200534 5 0.0 0.0 0.00 0.00 0.00 67 1014.0
20260506200051 5 0.0 0.0 0.00 0.00 0.00 66 1014.1